Date String (YYYY-MM-DD hh:mm:ss) UTC,Instrument flags,absolute air pressure of the measurement (hPa),sample flow rate (lpm),inlet stack bypass flow (lpm),air temperature of the measurement (°C),ambient temperature measured by the external sensor (°C),aerosol sample conditioner tube jacket temperature (°C),OPC LED temperature (°C),internal box temperature (°C),relative humidity of the measurement (%),span deviation,mass concentration of particles derived from Lorenz-Mie calculation of OPC scattering (μg/m³),mass concentration of particles derived from Lorenz-Mie calculation of OPC scattering (μg/m³),mass concentration of particles derived from Lorenz-Mie calculation of OPC scattering (μg/m³)
DateTimeUTC,F1_M11,P_M11,Q1_M11,Q2_M11,T1_M11,T2_M11,T3_M11,T4_M11,T5_M11,U1_M11,ZSPAN_M11,X0_M11,X2_M11,X1_M11
2023-11-11 16:00:00,SystemResetWarning,0831.9,5.00,000.00,022.9,022.2,000.0,031.0,024.5,8.3,0000.0,0006.73,0003.37,0002.46
2023-11-11 16:01:00,SystemResetWarning,0831.8,5.00,000.00,022.9,022.3,000.0,031.1,024.5,8.6,0000.0,0006.75,0003.37,0002.46
2023-11-11 16:02:00,SystemResetWarning,0831.9,5.00,000.00,022.9,022.3,000.0,031.1,024.5,8.9,0000.0,0006.91,0003.40,0002.47
2023-11-11 16:03:00,SystemResetWarning,0831.8,5.00,000.00,022.9,022.3,000.0,031.1,024.5,8.8,0000.0,0007.07,0003.43,0002.48
2023-11-11 16:04:00,SystemResetWarning,0831.8,5.00,000.00,023.0,022.3,000.0,031.1,024.5,8.7,0000.0,0007.15,0003.45,0002.48
2023-11-11 16:05:00,SystemResetWarning,0832.1,5.00,000.00,023.0,022.3,000.0,031.1,024.6,8.7,0000.0,0007.15,0003.45,0002.48
2023-11-11 16:06:00,SystemResetWarning,0832.0,5.01,000.00,023.0,022.4,000.0,031.1,024.6,8.9,0000.0,0007.33,0003.48,0002.53
2023-11-11 16:07:00,SystemResetWarning,0831.8,5.00,000.00,023.0,022.4,000.0,031.2,024.6,8.7,0000.0,0007.68,0003.50,0002.56
2023-11-11 16:08:00,SystemResetWarning,0831.9,5.00,000.00,023.0,022.4,000.0,031.2,024.6,8.3,0000.0,0007.69,0003.49,0002.58
2023-11-11 16:09:00,SystemResetWarning,0831.8,5.00,000.00,023.1,022.4,000.0,031.2,024.6,8.4,0000.0,0007.58,0003.46,0002.59
2023-11-11 16:10:00,SystemResetWarning,0831.8,5.00,000.00,023.1,022.4,000.0,031.2,024.7,8.5,0000.0,0007.35,0003.45,0002.62
2023-11-11 16:11:00,SystemResetWarning,0831.9,5.00,000.00,023.1,022.5,000.0,031.2,024.7,8.7,0000.0,0007.14,0003.45,0002.64
2023-11-11 16:12:00,SystemResetWarning,0832.0,5.00,000.00,023.1,022.5,000.0,031.2,024.7,8.6,0000.0,0006.90,0003.44,0002.64
2023-11-11 16:13:00,SystemResetWarning,0832.2,5.00,000.00,023.1,022.5,000.0,031.3,024.7,8.2,0000.0,0006.63,0003.42,0002.66
2023-11-11 16:14:00,SystemResetWarning,0832.2,5.00,000.00,023.1,022.5,000.0,031.3,024.7,8.1,0000.0,0006.47,0003.41,0002.68
2023-11-11 16:15:00,SystemResetWarning,0832.2,5.00,000.00,023.2,022.6,000.0,031.3,024.8,8.2,0000.0,0006.67,0003.45,0002.70
2023-11-11 16:16:00,SystemResetWarning,0831.8,5.00,000.00,023.2,022.6,000.0,031.3,024.8,8.6,0000.0,0006.81,0003.48,0002.73
2023-11-11 16:17:00,SystemResetWarning,0831.7,5.00,000.00,023.2,022.6,000.0,031.3,024.8,8.7,0000.0,0006.93,0003.51,0002.72
2023-11-11 16:18:00,SystemResetWarning,0831.7,5.00,000.00,023.2,022.6,000.0,031.4,024.8,8.8,0000.0,0006.31,0003.50,0002.70
2023-11-11 16:19:00,SystemResetWarning,0831.7,5.00,000.00,023.2,022.6,000.0,031.4,024.8,9.3,0000.0,0006.05,0003.47,0002.70
2023-11-11 16:20:00,SystemResetWarning,0831.7,5.00,000.00,023.3,022.6,000.0,031.4,024.8,9.7,0000.0,0006.24,0003.48,0002.70
2023-11-11 16:21:00,SystemResetWarning,0831.7,4.99,000.00,023.3,022.7,000.0,031.4,024.9,9.7,0000.0,0007.16,0003.50,0002.71
2023-11-11 16:22:00,SystemResetWarning,0831.7,4.99,000.00,023.3,022.7,000.0,031.4,024.9,9.8,0000.0,0007.91,0003.53,0002.73
2023-11-11 16:23:00,SystemResetWarning,0832.0,5.01,000.00,023.3,022.7,000.0,031.5,024.9,9.9,0000.0,0008.53,0003.59,0002.77
2023-11-11 16:24:00,SystemResetWarning,0832.3,5.01,000.00,023.3,022.7,000.0,031.5,024.9,9.8,0000.0,0009.06,0003.64,0002.78
2023-11-11 16:25:00,SystemResetWarning,0832.3,5.00,000.00,023.4,022.7,000.0,031.5,024.9,9.8,0000.0,0009.52,0003.68,0002.81
2023-11-11 16:26:00,SystemResetWarning,0831.9,4.99,000.00,023.4,022.7,000.0,031.5,024.9,9.5,0000.0,0009.55,0003.65,0002.88
2023-11-11 16:27:00,SystemResetWarning,0831.8,5.00,000.00,023.4,022.8,000.0,031.5,024.9,9.1,0000.0,0009.56,0003.68,0002.95
2023-11-11 16:28:00,SystemResetWarning,0831.8,5.00,000.00,023.4,022.8,000.0,031.5,024.9,8.7,0000.0,0009.59,0003.70,0003.03
2023-11-11 16:29:00,SystemResetWarning,0831.7,5.00,000.00,023.4,022.8,000.0,031.6,024.9,8.9,0000.0,0010.08,0003.76,0003.11
2023-11-11 16:30:00,SystemResetWarning,0831.9,5.00,000.00,023.4,022.8,000.0,031.6,024.9,9.1,0000.0,0010.26,0003.83,0003.16
2023-11-11 16:31:00,SystemResetWarning,0831.8,5.00,000.00,023.4,022.8,000.0,031.6,025.0,8.9,0000.0,0010.48,0003.90,0003.21
2023-11-11 16:32:00,SystemResetWarning,0831.8,5.00,000.00,023.5,022.8,000.0,031.6,025.0,9.2,0000.0,0010.36,0003.92,0003.25
2023-11-11 16:33:00,SystemResetWarning,0831.8,5.00,000.00,023.5,022.8,000.0,031.6,025.0,9.2,0000.0,0009.92,0003.96,0003.28
2023-11-11 16:34:00,SystemResetWarning,0831.8,5.00,000.00,023.5,022.8,000.0,031.6,025.0,9.1,0000.0,0010.15,0003.97,0003.31
2023-11-11 16:35:00,SystemResetWarning,0831.8,5.00,000.00,023.5,022.8,000.0,031.7,025.0,9.3,0000.0,0009.98,0004.00,0003.36
2023-11-11 16:36:00,SystemResetWarning,0831.8,5.00,000.00,023.5,022.8,000.0,031.7,025.0,9.3,0000.0,0009.75,0004.02,0003.40
2023-11-11 16:37:00,SystemResetWarning,0831.8,5.00,000.00,023.5,022.8,000.0,031.7,024.9,9.5,0000.0,0009.57,0004.05,0003.42
2023-11-11 16:38:00,SystemResetWarning,0831.8,5.00,000.00,023.5,022.8,000.0,031.7,025.0,9.6,0000.0,0009.83,0004.09,0003.42
2023-11-11 16:39:00,SystemResetWarning,0832.0,5.01,000.00,023.5,022.8,000.0,031.7,025.0,9.4,0000.0,0009.95,0004.12,0003.44
2023-11-11 16:40:00,SystemResetWarning,0831.7,5.00,000.00,023.6,022.9,000.0,031.7,025.1,9.2,0000.0,0009.69,0004.14,0003.44
2023-11-11 16:41:00,SystemResetWarning,0831.7,5.00,000.00,023.6,022.9,000.0,031.7,025.1,8.9,0000.0,0010.12,0004.14,0003.43
2023-11-11 16:42:00,SystemResetWarning,0831.7,5.00,000.00,023.6,022.9,000.0,031.8,025.1,8.7,0000.0,0010.18,0004.15,0003.43
2023-11-11 16:43:00,SystemResetWarning,0831.7,5.00,000.00,023.6,022.9,000.0,031.8,025.2,8.3,0000.0,0009.92,0004.15,0003.42
2023-11-11 16:44:00,SystemResetWarning,0831.6,5.00,000.00,023.6,023.0,000.0,031.8,025.2,7.9,0000.0,0009.77,0004.12,0003.41
2023-11-11 16:45:00,SystemResetWarning,0831.7,5.00,000.00,023.6,023.0,000.0,031.8,025.2,8.2,0000.0,0009.22,0004.11,0003.39
2023-11-11 16:46:00,SystemResetWarning,0831.7,4.99,000.00,023.7,023.0,000.0,031.8,025.2,7.9,0000.0,0008.66,0004.07,0003.36
2023-11-11 16:47:00,SystemResetWarning,0831.7,5.00,000.00,023.7,023.0,000.0,031.8,025.2,7.4,0000.0,0008.42,0003.98,0003.31
2023-11-11 16:48:00,SystemResetWarning,0831.7,5.00,000.00,023.7,023.0,000.0,031.9,025.2,7.4,0000.0,0008.63,0003.92,0003.26
2023-11-11 16:49:00,SystemResetWarning,0831.7,5.00,000.00,023.7,023.1,000.0,031.9,025.2,7.2,0000.0,0008.49,0003.85,0003.21
2023-11-11 16:50:00,SystemResetWarning,0831.7,5.00,000.00,023.7,023.1,000.0,031.9,025.2,7.7,0000.0,0008.38,0003.76,0003.16
2023-11-11 16:51:00,SystemResetWarning,0831.6,5.00,000.00,023.8,023.1,000.0,031.9,025.2,8.4,0000.0,0008.17,0003.66,0003.08
2023-11-11 16:52:00,SystemResetWarning,0831.7,5.01,000.00,023.8,023.1,000.0,031.9,025.2,9.3,0000.0,0007.51,0003.58,0002.99
2023-11-11 16:53:00,SystemResetWarning,0831.6,5.00,000.00,023.8,023.1,000.0,031.9,025.3,8.9,0000.0,0007.09,0003.52,0002.90
2023-11-11 16:54:00,SystemResetWarning,0831.5,5.00,000.00,023.8,023.1,000.0,031.9,025.3,8.1,0000.0,0006.84,0003.42,0002.80
2023-11-11 16:55:00,SystemResetWarning,0831.6,5.00,000.00,023.8,023.1,000.0,032.0,025.3,7.3,0000.0,0007.13,0003.42,0002.72
2023-11-11 16:56:00,SystemResetWarning,0831.6,5.00,000.00,023.8,023.1,000.0,032.0,025.3,7.1,0000.0,0007.72,0003.42,0002.69
2023-11-11 16:57:00,SystemResetWarning,0831.6,5.00,000.00,023.8,023.1,000.0,032.0,025.3,7.7,0000.0,0008.21,0003.41,0002.66
2023-11-11 16:58:00,SystemResetWarning,0831.5,5.00,000.00,023.8,023.1,000.0,032.0,025.3,7.5,0000.0,0008.50,0003.41,0002.65
2023-11-11 16:59:00,SystemResetWarning,0831.5,5.00,000.00,023.9,023.2,000.0,032.0,025.3,7.7,0000.0,0008.30,0003.36,0002.61
